COSMOS 1603 DEB

Satellite information

Favourite Embed

Satellite Type and Status

DEBRISIN ORBIT

Key statistics

Satellite COSMOS 1603 DEB at a glance.

Uptime

15056

Days in orbit

Revolutions

≈ 14.2

Per day

Orbit

LEO

Low Earth Orbit

Inclination

71.0

Latest

Satellite identification and parameters

Extended collection of information and parameters for COSMOS 1603 DEB.

Object identification

Identified? True

Debris? True

Object name: COSMOS 1603 DEB

International designator: 1984-106AE

Object number (NORAD): 43312

Object ID (CCSDS): 43312

Country: COMMONWEALTH OF INDEPENDENT STATES (CIS)

Current information (Y/N): Y

RCS size: SMALL

Orbital parameters

Period: 101.305 minutes

Inclination: 71.0262 deg

SMA: 7198.587 km

Apoapsis: 831.712 km

Periapsis: 809.191 km

RAAN: 47.303 deg

Eccentricy: 0.0015643

Argument of periapsis: 158.1611 deg

Mean anomaly: 202.0186 deg

Mean motion: 14.21451014 rev/day

Mean motion (dot): 0.00000967 rev/day2

B* drag term: 0.0004636611 1/REarth

Two-line elements (TLE)

Creation date: Dec. 16, 2025, 2:19 a.m.

Reference frame: TEME

Reference center: EARTH

Epoch: Dec. 15, 2025, 2:14 p.m. UTC

TLE line 0: 0 COSMOS 1603 DEB

TLE line 1: 1 43312U 84106AE 25349.59372297 .00000967 00000-0 46366-3 0 9999

TLE line 2: 2 43312 71.0262 47.3030 0015643 158.1611 202.0186 14.21451014508591

Live tracking on map

Real-time ground track for satellite COSMOS 1603 DEB.

In-orbit conjunctions

A list of the most updated potential collisions computed for object COSMOS 1603 DEB.

Target Orbit TCA Probability of collision Miss distance Type
NOAA 16 DEB SSO 2024-11-14 10:38:32 0.0007843578 205.0 (m) DEBRIS
FENGYUN 1C DEB SSO 2024-11-11 00:47:32 0.0002436076 392.0 (m) DEBRIS
FENGYUN 1C DEB SSO 2024-07-08 12:25:50 0.0002925236 64.0 (m) DEBRIS
SL-16 DEB LEO 2024-06-10 23:49:16 0.0001031868 349.0 (m) DEBRIS

Associated space launch

Second generation ELING satellite

COSMOS 1603 DEB was lifted into orbit during the mission ‘Proton | Tselina-2 1’, on board a Proton space rocket.

The launch took place on Sept. 28, 1984, 2 p.m. from 200/39 (200L).

For more information about the launch, click the button.

Launch to space Proton | Tselina-2 1
Proton | Tselina-2 1

Agency: N/A

Status: Launch Successful

Launch date: Sept. 28, 1984, 2 p.m. UTC

Rocket: Proton

Launch pad: 200/39 (200L)

Location: Baikonur Cosmodrome, Republic of Kazakhstan

...

Latest news about this satellite

There are no fresh news available about this satellite. Check back as we update our databases every day.


Newsletter sign-up

Weekly statistics, charts and insights to help you stay on top of the space industry.